Starlink 30897

operational
NORAD ID: 58360 Int'l Des: 2023-177 Owner: SPXS Country: US Constellation: starlink
LEOCIRCULAR

Starlink 30897について

説明を読み込み中...

リアルタイム位置

3D地球を読み込み中...

次回通過

高度履歴

Altitude vs Time

uPlot chart will show altitude changes over time

軌道要素

1 58360U 23177K 25303.54122076 .00000394 00000-0 44252-4 0 9999
2 58360 43.0031 339.1604 0001277 268.3362 91.7334 15.02535389108634
Epoch: Oct 30, 2025 • Age: 27 hours

現在のステータス

高度 564.7 km
速度 7.58 km/s
衛星直下点 -25.26°S, 23.52°E
打ち上げ日 Nov 18, 2023
運用期間 1.9 years
タイプ internet

技術仕様

分類 Payload
質量 730.00 kg
乾燥質量 700.00 kg
総質量 730.00 kg
長さ 0.30 m
直径 4.10 m
スパン 29.00 m
形状 Box + pan
製造者 SPXS
バスタイプ Starlink V2M
フェーズステータス In Orbit
所有者/国 SPXS/US

大規模コンステレーション

Loading constellations...